FW0574 Weather Reports


time (UTC)temp
F
wind
direction
speed
knots
gust
knots
rain 1hr
in
rain 24hr
in
rain mn
in
humidity
%
barometer
mb
20260505234212 63 270 1.7 2.6 0.00 0.00 0.00 70 1010.8
20260505233711 64 113 1.7 2.6 0.00 0.00 0.00 69 1010.8
20260505233208 65 270 0.9 1.7 0.00 0.00 0.00 68 1010.5
20260505232708 65 225 0.9 1.7 0.00 0.00 0.00 66 1010.8
20260505232209 66 270 0.0 1.7 0.00 0.00 0.00 65 1010.8
20260505231201 66 203 0.9 2.6 0.00 0.00 0.00 65 1010.8
20260505230658 66 0 0.9 2.6 0.00 0.00 0.00 63 1010.8
20260505230156 67 248 0.0 1.7 0.00 0.00 0.00 65 1010.8
20260505225653 66 293 0.0 1.7 0.00 0.00 0.00 65 1010.8
20260505225153 67 270 0.0 1.7 0.00 0.00 0.00 65 1010.8
20260505224654 67 315 0.9 1.7 0.00 0.00 0.00 65 1010.8
20260505223653 67 315 0.9 2.6 0.00 0.00 0.00 65 1010.8
20260505223152 66 270 0.0 2.6 0.00 0.00 0.00 65 1010.8
20260505222651 66 248 0.9 3.5 0.00 0.00 0.00 65 1011.2
20260505221646 67 270 0.0 0.9 0.00 0.00 0.00 63 1011.2
20260505221142 67 270 0.0 1.7 0.00 0.00 0.00 65 1011.2
20260505220639 65 68 0.0 1.7 0.00 0.00 0.00 65 1011.2
20260505215634 65 270 0.9 2.6 0.00 0.00 0.00 65 1011.2
20260505215134 65 293 0.0 0.0 0.00 0.00 0.00 66 1011.2
20260505214634 65 293 0.0 1.7 0.00 0.00 0.00 66 1011.2
20260505213633 65 293 0.9 1.7 0.00 0.00 0.00 66 1011.2
20260505213135 65 158 0.9 1.7 0.00 0.00 0.00 66 1011.5
20260505212634 64 45 0.9 2.6 0.00 0.00 0.00 68 1011.5
20260505212137 63 23 1.7 2.6 0.00 0.00 0.00 69 1011.5
20260505211635 63 270 0.9 2.6 0.00 0.00 0.00 69 1011.5
20260505210136 64 270 0.9 3.5 0.00 0.00 0.00 66 1011.2
20260505205134 64 0 0.0 1.7 0.00 0.00 0.00 66 1011.2
20260505204634 64 270 0.9 1.7 0.00 0.00 0.00 65 1011.5
20260505204133 65 293 0.9 1.7 0.00 0.00 0.00 65 1011.5
20260505203632 65 68 0.9 1.7 0.00 0.00 0.00 63 1011.5
20260505202636 65 315 0.9 1.7 0.00 0.00 0.00 63 1011.2
20260505202133 65 315 0.0 1.7 0.00 0.00 0.00 65 1011.5
20260505201636 65 23 0.0 1.7 0.00 0.00 0.00 65 1011.5
20260505201134 65 293 0.0 1.7 0.00 0.00 0.00 65 1011.5
20260505200633 65 270 0.0 1.7 0.00 0.00 0.00 63 1011.5
20260505200135 65 270 0.9 2.6 0.00 0.00 0.00 63 1011.5
20260505195634 65 293 1.7 2.6 0.00 0.00 0.00 63 1011.8
20260505195135 65 90 0.0 0.9 0.00 0.00 0.00 65 1011.5
20260505194634 65 180 0.0 1.7 0.00 0.00 0.00 65 1011.5
20260505194133 64 293 0.9 1.7 0.00 0.00 0.00 65 1011.8
20260505193633 64 293 0.9 2.6 0.00 0.00 0.00 63 1011.8
20260505193133 64 270 1.7 2.6 0.00 0.00 0.00 65 1011.8
20260505192633 65 338 1.7 2.6 0.00 0.00 0.00 63 1011.8
20260505192133 65 293 1.7 2.6 0.00 0.00 0.00 63 1011.8
20260505191631 65 225 0.9 2.6 0.00 0.00 0.00 63 1011.5
20260505191131 65 270 0.9 2.6 0.00 0.00 0.00 63 1011.5
20260505190627 64 158 1.7 2.6 0.00 0.00 0.00 65 1011.5
20260505190126 65 293 0.9 2.6 0.00 0.00 0.00 63 1011.5
20260505185625 64 293 0.9 2.6 0.00 0.00 0.00 65 1011.5
20260505185127 63 270 0.9 2.6 0.00 0.00 0.00 65 1011.5
20260505184628 62 315 0.9 1.7 0.00 0.00 0.00 66 1011.5
20260505184123 62 293 0.9 2.6 0.00 0.00 0.00 68 1011.8
20260505183624 62 270 1.7 2.6 0.00 0.00 0.00 68 1011.5
20260505183121 62 293 1.7 2.6 0.00 0.00 0.00 68 1011.5
20260505182620 62 248 1.7 3.5 0.00 0.00 0.00 69 1011.5
20260505182115 61 293 2.6 3.5 0.00 0.00 0.00 68 1011.5
20260505180112 61 293 0.9 2.6 0.00 0.00 0.00 69 1011.5
20260505175605 61 315 1.7 2.6 0.00 0.00 0.00 68 1011.2
20260505175102 60 270 0.9 1.7 0.00 0.00 0.00 68 1011.2
20260505174604 61 293 0.9 1.7 0.00 0.00 0.00 68 1011.2
20260505174059 61 68 0.0 1.7 0.00 0.00 0.00 69 1011.2
20260505173600 61 293 0.9 1.7 0.00 0.00 0.00 69 1011.2
20260505172057 60 338 0.9 2.6 0.00 0.00 0.00 68 1011.2
20260505171557 61 270 0.9 1.7 0.00 0.00 0.00 68 1011.2
20260505171057 61 293 0.9 1.7 0.00 0.00 0.00 68 1011.2
20260505170555 61 90 0.9 1.7 0.00 0.00 0.00 66 1010.8
20260505170055 61 315 0.9 1.7 0.00 0.00 0.00 68 1011.2
20260505165555 61 270 0.0 1.7 0.00 0.00 0.00 68 1010.8
20260505164556 60 270 0.0 2.6 0.00 0.00 0.00 69 1010.8
20260505164052 60 45 0.9 2.6 0.00 0.00 0.00 69 1010.8
20260505163553 60 270 0.9 1.7 0.00 0.00 0.00 69 1010.8
20260505163046 60 315 0.0 1.7 0.00 0.00 0.00 69 1010.8
20260505162550 60 293 0.9 1.7 0.00 0.00 0.00 70 1010.8
20260505162043 60 293 0.0 1.7 0.00 0.00 0.00 70 1011.2
20260505161543 59 293 0.0 1.7 0.00 0.00 0.00 70 1010.8
20260505161048 59 0 0.9 0.9 0.00 0.00 0.00 71 1010.8
20260505160540 58 293 0.0 0.9 0.00 0.00 0.00 73 1010.8
20260505153036 57 45 0.9 1.7 0.00 0.00 0.00 75 1010.8
20260505151536 56 113 0.0 0.9 0.00 0.00 0.00 78 1010.5
20260505150534 55 90 0.0 0.9 0.00 0.00 0.00 79 1010.5
20260505140520 53 315 0.0 0.0 0.00 0.00 0.00 83 1010.1
20260505124443 53 270 0.0 0.0 0.00 0.00 0.00 81 1010.1
20260505123941 53 293 0.0 0.0 0.00 0.00 0.00 83 1010.1
20260505123441 53 338 0.0 0.0 0.00 0.00 0.00 81 1009.8
20260505122941 53 270 0.0 0.0 0.00 0.00 0.00 81 1010.1
20260505122441 53 270 0.0 0.0 0.00 0.00 0.00 83 1009.8
20260505121942 53 270 0.0 0.0 0.00 0.00 0.00 83 1010.1
20260505120940 53 270 0.0 0.0 0.00 0.00 0.00 81 1010.1
20260505120441 53 68 0.0 0.9 0.00 0.00 0.00 81 1010.1
20260505115940 53 270 0.0 0.9 0.00 0.00 0.00 81 1010.1
20260505115441 53 270 0.0 0.9 0.00 0.00 0.00 81 1010.1
20260505114440 53 270 0.0 1.7 0.00 0.00 0.00 81 1010.1
20260505113941 53 270 0.9 2.6 0.00 0.00 0.00 81 1010.1
20260505113440 53 270 1.7 2.6 0.00 0.00 0.00 81 1010.1
20260505112941 53 270 0.0 1.7 0.00 0.00 0.00 81 1010.1
20260505112443 53 270 0.0 0.0 0.00 0.00 0.00 81 1010.1
20260505111941 53 270 0.0 1.7 0.00 0.00 0.00 81 1009.8
20260505110939 53 270 0.9 1.7 0.00 0.00 0.00 81 1010.1
20260505101934 53 270 0.0 0.0 0.00 0.00 0.00 81 1009.8
20260505101435 53 270 0.0 0.0 0.00 0.00 0.00 81 1010.1
20260505100932 53 270 0.0 0.0 0.00 0.00 0.00 80 1010.1
20260505100430 53 270 0.0 0.0 0.00 0.00 0.00 80 1010.1
20260505095924 53 270 0.0 0.0 0.00 0.00 0.00 80 1010.1
20260505095424 53 293 0.0 0.0 0.00 0.00 0.00 80 1010.1
20260505094922 53 270 0.0 0.0 0.00 0.00 0.00 80 1010.1
20260505094423 53 270 0.0 0.0 0.00 0.00 0.00 80 1010.1
20260505093923 53 270 0.0 0.0 0.00 0.00 0.00 79 1010.1
20260505093421 54 293 0.0 0.0 0.00 0.00 0.00 78 1010.1
20260505092921 54 270 0.0 0.0 0.00 0.00 0.00 76 1010.1
20260505092420 54 270 0.0 1.7 0.00 0.00 0.00 76 1010.1
20260505091921 54 270 0.0 1.7 0.00 0.00 0.00 75 1010.1
20260505091421 54 270 0.0 0.9 0.00 0.00 0.00 75 1010.1
20260505090920 54 270 0.0 0.9 0.00 0.00 0.00 75 1010.5
20260505090423 54 203 0.0 1.7 0.00 0.00 0.00 76 1010.1
20260505085922 54 270 0.0 1.7 0.00 0.00 0.00 76 1010.5
20260505084922 54 293 0.0 0.9 0.00 0.00 0.00 78 1010.1
20260505084422 54 248 0.0 0.9 0.00 0.00 0.00 78 1010.1
20260505083921 54 270 0.0 0.9 0.00 0.00 0.00 78 1010.5
20260505083421 54 293 0.0 0.9 0.00 0.00 0.00 79 1010.5
20260505082921 54 293 0.0 0.9 0.00 0.00 0.00 79 1010.5
20260505082421 54 315 0.0 0.9 0.00 0.00 0.00 80 1010.5
20260505081922 54 270 0.0 0.9 0.00 0.00 0.00 80 1010.5
20260505081422 54 270 0.0 0.9 0.00 0.00 0.00 80 1010.5
20260505080921 54 270 0.0 0.0 0.00 0.00 0.00 81 1010.8
20260505075922 54 270 0.9 1.7 0.00 0.00 0.00 81 1010.8
20260505075417 54 270 0.0 0.9 0.00 0.00 0.00 83 1010.8
20260505074915 54 270 0.0 0.9 0.00 0.00 0.00 83 1010.5
20260505074415 54 270 0.0 1.7 0.00 0.00 0.00 85 1010.8
20260505073913 54 270 0.0 1.7 0.00 0.00 0.00 86 1010.5
20260505073412 54 270 0.0 1.7 0.00 0.00 0.00 86 1010.8
20260505072912 54 293 0.0 1.7 0.00 0.00 0.00 86 1010.5
20260505072411 54 293 0.0 0.0 0.00 0.00 0.00 85 1010.8
20260505071411 54 270 0.0 0.0 0.00 0.00 0.00 85 1010.5
20260505070854 54 270 0.0 0.0 0.00 0.00 0.00 85 1010.5
20260505070355 54 270 0.0 0.0 0.00 0.00 0.00 85 1010.1
20260505065343 54 270 0.0 0.9 0.00 0.00 0.00 85 1010.5
20260505064845 55 293 0.0 0.9 0.00 0.00 0.00 83 1010.5
20260505064343 55 293 0.0 0.9 0.00 0.00 0.00 83 1010.5
20260505063838 55 270 0.0 0.9 0.00 0.00 0.00 83 1010.5
20260505063336 55 293 0.0 0.9 0.00 0.00 0.00 83 1010.5
20260505062829 55 270 0.0 0.9 0.00 0.00 0.00 83 1010.5
20260505062329 55 270 0.0 0.0 0.00 0.00 0.00 81 1010.1
20260505061825 55 270 0.0 0.0 0.00 0.00 0.00 81 1010.1
20260505061324 55 225 0.0 1.7 0.00 0.00 0.00 81 1010.1
20260505060825 55 270 0.0 1.7 0.00 0.00 0.00 81 1010.1
20260505060325 56 225 0.0 3.5 0.00 0.00 0.00 80 1010.1
20260505055826 56 270 1.7 3.5 0.00 0.00 0.00 80 1010.1
20260505055326 56 180 0.9 3.5 0.00 0.00 0.00 80 1010.1
20260505054826 56 270 0.0 0.9 0.00 0.00 0.00 79 1010.5
20260505054325 56 270 0.0 0.9 0.00 0.00 0.00 79 1010.5
20260505053826 56 293 0.0 1.7 0.00 0.00 0.00 79 1010.5
20260505053325 56 203 0.9 1.7 0.00 0.00 0.00 79 1010.5
20260505052825 56 293 0.0 1.7 0.00 0.00 0.00 79 1010.5
20260505052326 56 293 0.0 1.7 0.00 0.00 0.00 79 1010.8
20260505051325 57 203 0.0 1.7 0.00 0.00 0.00 78 1010.8
20260505050824 57 293 0.0 2.6 0.00 0.00 0.00 78 1010.5
20260505050324 57 293 0.0 2.6 0.00 0.00 0.00 78 1010.5
20260505041319 58 293 0.0 0.9 0.00 0.00 0.00 73 1010.1
20260505040817 58 293 0.0 0.9 0.00 0.00 0.00 71 1010.1
20260505040317 58 270 0.0 0.9 0.00 0.00 0.00 70 1010.1
20260505035815 58 270 0.0 0.9 0.00 0.00 0.00 69 1010.1
20260505035314 58 293 0.0 0.9 0.00 0.00 0.00 69 1009.8
20260505034812 58 270 0.0 1.7 0.00 0.00 0.00 68 1009.8
20260505034315 58 293 0.0 1.7 0.00 0.00 0.00 68 1009.8
20260505033812 59 293 0.0 0.9 0.00 0.00 0.00 68 1009.8
20260505033308 59 315 0.0 0.9 0.00 0.00 0.00 68 1009.5
20260505032807 59 270 0.0 0.9 0.00 0.00 0.00 68 1009.5
20260505032308 59 270 0.0 0.9 0.00 0.00 0.00 68 1009.5
20260505031308 59 270 0.0 0.0 0.00 0.00 0.00 66 1009.5
20260505030802 59 293 0.0 3.5 0.00 0.00 0.00 66 1009.1
20260505030254 59 270 0.9 3.5 0.00 0.00 0.00 66 1009.5
20260505024749 60 270 0.0 1.7 0.00 0.00 0.00 66 1009.5
20260505024249 60 248 0.0 1.7 0.00 0.00 0.00 65 1009.5
20260505023744 60 270 0.9 1.7 0.00 0.00 0.00 65 1009.5
20260505023242 60 23 0.9 2.6 0.00 0.00 0.00 65 1009.5
20260505022741 61 293 0.9 2.6 0.00 0.00 0.00 65 1009.5
20260505022237 61 270 0.9 6.1 0.00 0.00 0.00 63 1009.5
20260505021738 61 270 1.7 6.1 0.00 0.00 0.00 63 1009.1
20260505021238 61 293 3.5 7.0 0.00 0.00 0.00 63 1009.5
20260505020737 61 270 3.5 7.0 0.00 0.00 0.00 63 1009.5
20260505020236 62 270 1.7 4.3 0.00 0.00 0.00 63 1009.1
20260505015736 62 270 1.7 6.1 0.00 0.00 0.00 63 1009.1
20260505014734 62 315 3.5 5.2 0.00 0.00 0.00 63 1009.1
20260505014235 63 315 0.9 5.2 0.00 0.00 0.00 63 1009.5
20260505013730 63 293 1.7 5.2 0.00 0.00 0.00 63 1009.1
20260505013228 63 293 1.7 2.6 0.00 0.00 0.00 61 1009.1
20260505012731 64 248 0.9 5.2 0.00 0.00 0.00 61 1009.5
20260505012229 64 270 2.6 5.2 0.00 0.00 0.00 60 1009.1
20260505011729 65 293 1.7 4.3 0.00 0.00 0.00 60 1009.5
20260505011229 65 270 1.7 4.3 0.00 0.00 0.00 60 1009.5
20260505010729 65 248 1.7 5.2 0.00 0.00 0.00 60 1009.5
20260505005722 66 248 2.6 5.2 0.00 0.00 0.00 59 1009.5
20260505005222 67 293 0.0 1.7 0.00 0.00 0.00 59 1009.5
20260505004716 66 270 0.0 2.6 0.00 0.00 0.00 59 1009.5
20260505003712 66 270 0.9 4.3 0.00 0.00 0.00 60 1009.8
20260505003209 67 293 1.7 4.3 0.00 0.00 0.00 58 1009.8
20260505002710 67 248 0.9 3.5 0.00 0.00 0.00 58 1009.8
20260505002211 68 293 1.7 3.5 0.00 0.00 0.00 56 1009.5
20260505001708 69 270 0.0 4.3 0.00 0.00 0.00 55 1009.5
20260505001206 69 270 1.7 4.3 0.00 0.00 0.00 55 1009.5
20260505000705 70 293 1.7 2.6 0.00 0.00 0.00 55 1009.5
20260505000200 71 203 0.9 2.6 0.00 0.00 0.00 55 1009.5
20260504235658 70 270 0.9 3.5 0.00 0.00 0.00 56 1009.8
20260504234652 67 315 0.9 2.6 0.00 0.00 0.00 61 1009.5